Showing default

RADUGA 25, 20499

Orbit data source: Space-Track

RADUGA 25, 20499 is a payload satellite owned by UNKS (CIS) in GEO that was launched on Thu, 15 Feb 1990 UTC via a PROTON-K/DM-2 launch vehicle from the Tyuratam Missile And Space Complex (TTMTR). Payload-class satellites include a variety of spacecraft equipped with specific instruments for various scientific and technological missions. These include communications satellites like Starlink; space stations such as the ISS; scientific satellites like the Hubble; Earth observation satellites from companies like Planet Labs, Umbra, and HawkEye 360; GPS; miniature CubeSats for education and research; and military/defense satellites.

Loading next visibility...
Identifier
20499, 1990-016A
Orbit
GEO
Country
Flag of CISCIS
Related business
Manufacturer
NPO PM
Mission
Non-operational Defense Communications
Bus & Motor
RADUGA, Unknown motor
Mass
1,965 kg wet, ~1,800 kg dry
Launch date (UTC)
1990-02-15 (36 years ago)
Launch vehicle
PROTON-K/DM-2
Launch site
Tyuratam Missile And Space Complex (TTMTR)
Object type
Payload
Rocket body
Debris
Shape & HBR
Cyl + 2 Pan, 4.8 m
Radar Cross Section
16.975 m², Large (>1 m²)

Expand to show TLE details & history
Last TLE update: 20 hours ago

TLE from 20 hours ago
0 RADUGA 25
1 20499U 90016A   26034.31243953 -.00000292  00000-0  00000-0 0  9999
2 20499  12.4607 335.6141 0005025 230.7436 356.9922  1.00227294131565
Epoch: 2026-02-03T07:29Z
TLE epoch observation values (Epoch: 2026-02-03T07:29:54.775Z)
Latitude
-9.19022°
Longitude
-43.28046°
Altitude
35,779.264 km
Speed
3.076 km/s
True Right ascension
13h 30m 46s
True Declination
-9° 10' 52"
Sunlit
Object was in daylight at epoch
Visualization orbit readout
Latitude
Unknown
Longitude
Unknown
Altitude
Unknown
Speed
Unknown
Apparent Right ascension
Unknown
Apparent Declination
Unknown
Sunlit
N/A
Visualization observer readout
Local Sidereal Time
05:01:25
Azimuth
Unknown
Elevation
Unknown
Doppler factor
Unknown
Orbital elements
Apogee altitude
35,821.264 km
Perigee altitude
35,778.875 km
Semi-major axis
42,178.206 km
Eccentricity
0.0005
Inclination
12.4607°
RAAN
335.6141°
Arg. of periapsis
230.7436°
True anomaly
356.98918°
Mean anomaly
356.9922°
Eccentric anomaly
356.99069°
Mean motion
0.25056 °/min
Orbital period
1,436.78 mins
BSTAR
0
Loading maneuver chart data...
Computing Atmospheric mass density...
Loading historical data...
Loading historical data...
Loading historical data...
Loading historical data...
Loading historical data...
Loading historical data...
Loading historical data...

Documentation

Showing up to 5 results
|